CZ-6A DEB, 61264

Orbit data source: Space-Track

CZ-6A DEB, 61264 is space debris in LEO originally from a launch on Tue, 06 Aug 2024 UTC launched from the Taiyaun Space Center, China (TSC). Debris objects in space refer to the collection of defunct objects orbiting the Earth. Examples of debris include non-operational satellites, rocket bodies, and fragments generated from explosions, collisions, or faulty payload assembly.

Loading next visibility...
Identifier
61264, 2024-140RZ
Orbit
LEO
Country
Flag of CNCN / PRC
Related business
Manufacturer
SAST
Mission
Spacecraft
Bus & Motor
Unknown
Mass
Unknown
Launch date (UTC)
2024-08-06 (2 years ago)
Launch vehicle
Unknown
Launch site
Taiyaun Space Center, China (TSC)
Object type
Payload
Rocket body
Debris
Shape & HBR
Unknown shape, 0.1 m
Radar Cross Section
Medium (>0.1 m² and <1 m²)

Expand to show TLE details & history
Last TLE update: 14 hours ago

TLE from 14 hours ago
0 CZ-6A DEB
1 61264U 24140RZ  26171.26189146  .00002055  00000-0  86075-3 0  9995
2 61264  89.0081 274.5420 0043459 148.7657 211.6132 14.25187393 94242
Epoch: 2026-06-20T06:17Z
TLE epoch observation values (Epoch: 2026-06-20T06:17:07.422Z)
Latitude
-0.00003°
Longitude
-88.21797°
Altitude
837.562 km
Speed
7.42 km/s
True Right ascension
18h 18m 10s
True Declination
0° 00' 00"
Sunlit
Object was in full shadow at epoch
Visualization orbit readout
Latitude
Unknown
Longitude
Unknown
Altitude
Unknown
Speed
Unknown
Apparent Right ascension
Unknown
Apparent Declination
Unknown
Sunlit
N/A
Visualization observer readout
Local Sidereal Time
07:17:36
Azimuth
Unknown
Elevation
Unknown
Doppler factor
Unknown
Orbital elements
Apogee altitude
836.023 km
Perigee altitude
773.59 km
Semi-major axis
7,182.943 km
Eccentricity
0.00435
Inclination
89.0081°
RAAN
274.542°
Arg. of periapsis
148.7657°
True anomaly
211.35336°
Mean anomaly
211.6132°
Eccentric anomaly
211.48316°
Mean motion
3.56525 °/min
Orbital period
100.97 mins
BSTAR
0.00086075
Loading maneuver chart data...
Computing Atmospheric mass density...
Loading historical data...
Loading historical data...
Loading historical data...
Loading historical data...
Loading historical data...
Loading historical data...
Loading historical data...

Documentation

Showing up to 5 results
|